sat.trackr.live / text

‹ back to catalog

KUIPER-00455

NORAD 68949 · 2026-098AG

PAYLOAD ACTIVE UNKNOWN

§ Identity

Operator
Country
US
Launch date
2026-04-30
Launch site
FRGUI
Launch vehicle
Mass (kg)
RCS (m²)

External: N2YO · Heavens-Above · Gunter

§ Orbital elements

Epoch: 2026-09-19T23:51:06.314976Z

Period
97.30 min
Inclination
51.9023°
Eccentricity
0.0001522
Mean motion
14.79931393 rev/d
Perigee alt
628.5 km
Apogee alt
630.6 km
Semi-major
7,007.7 km
B*
5.5078e-5
RAAN
3.9250°
Arg perigee
142.8320°
Mean anomaly
217.2748°
Rev number
2,145

§ Raw data

KUIPER-004551 68949U 26098AG  26262.99382309  .00000199  00000+0  55078-4 0  99992 68949  51.9023   3.9250 0001522 142.8320 217.2748 14.79931393 21459

JSON: /api/v1/satellites/68949 · /tle

For live sub-satellite position, see the globe view (requires WebGL).

§ Visibility from observer

Set your observer location to see the next 7 days of passes ≥ 10°. The values pass through the URL so the page stays shareable.

No JS? Fill the form by hand. The geolocation button needs JavaScript.